Theta_e
323 323 324 322 322 322 319 318 316 318 322 319 315 317 320 316 314 319 322 323 328 327 331 339 336 332 336 339 341 340 339 341 340 341 343 342 343 344 345 347 347 348 347 346 346 346 346 347 346 346 347 348 350 350 350 350 350 350 350 350 351 350 351
321 320 325 323 322 324 319 315 317 320 322 321 317 314 314 314 314 318 320 320 320 319 327 343 341 336 337 339 341 342 340 342 341 341 341 340 341 343 344 346 347 347 348 346 346 346 346 347 347 347 347 348 349 350 350 350 350 350 350 350 351 351 351
322 320 322 321 321 322 320 320 322 321 319 317 316 315 315 316 316 317 321 324 321 317 325 338 338 337 341 339 340 343 341 342 341 340 341 340 340 341 342 344 346 346 347 346 345 345 346 347 347 347 347 347 348 349 350 351 351 351 351 351 351 351 352
320 321 320 317 317 321 320 321 321 322 320 316 316 318 318 318 317 318 321 321 316 319 332 339 338 342 342 338 340 342 340 341 342 340 341 341 340 340 340 341 344 345 345 345 345 345 345 346 347 347 347 347 348 349 350 350 351 351 351 351 351 351 352
317 318 319 318 318 319 318 317 316 316 318 317 316 317 317 317 317 318 320 314 313 327 341 339 340 346 343 339 341 341 339 339 340 340 341 341 341 340 339 340 341 343 344 344 345 345 346 345 346 347 347 348 348 348 350 350 351 351 351 351 352 352 352
315 318 322 320 321 321 319 318 316 315 316 316 315 315 316 315 316 321 321 310 313 334 342 335 341 347 343 340 338 338 340 338 339 341 340 342 343 340 339 339 339 342 343 345 344 344 345 345 346 347 347 347 348 348 349 350 351 351 352 352 352 352 352
318 322 324 320 321 322 321 320 320 319 319 316 313 314 316 315 316 322 322 313 318 339 342 336 343 349 345 343 339 338 339 336 338 341 339 340 343 341 340 338 337 341 343 344 344 344 345 345 345 346 347 347 348 348 349 349 350 351 351 352 352 352 353
324 322 324 324 323 322 319 321 322 319 319 318 315 319 322 319 315 317 319 314 316 337 348 339 337 343 341 339 338 339 340 338 338 340 340 342 343 343 342 340 339 340 341 344 347 347 346 345 346 346 346 347 347 348 348 349 350 350 351 352 352 352 353
318 317 321 320 321 323 320 321 322 320 320 320 317 320 323 318 315 317 317 312 317 346 362 343 335 338 338 334 333 334 339 340 339 342 344 345 345 344 344 343 343 342 342 346 349 349 347 344 345 346 346 347 347 347 348 348 349 350 350 351 352 352 353
319 320 323 320 322 326 323 322 323 321 320 319 316 317 316 316 320 319 314 317 331 354 355 339 336 338 337 338 334 332 336 338 340 345 348 347 347 347 347 347 345 344 344 346 348 350 347 345 346 346 345 347 347 347 349 348 349 350 350 351 352 352 353
326 325 326 323 323 325 323 323 326 324 321 319 318 315 312 319 325 318 315 322 330 334 335 337 341 339 338 341 337 334 339 341 341 345 347 347 346 346 346 345 345 346 347 347 348 348 347 344 345 346 346 346 347 348 348 349 349 350 350 351 351 352 352
323 321 321 320 320 322 323 323 325 324 322 321 317 313 316 326 323 313 321 331 323 323 337 342 341 342 342 344 341 338 340 342 341 341 342 344 346 345 346 346 347 350 349 348 348 347 345 344 344 346 346 346 347 348 348 348 349 349 350 351 351 352 352
318 317 318 318 319 322 322 322 323 323 323 321 316 315 321 328 318 312 326 336 325 327 342 342 343 348 346 344 343 338 338 341 342 343 345 345 343 342 345 347 349 349 349 349 349 347 345 345 345 345 346 346 347 348 348 349 349 350 350 351 351 352 352
319 317 318 319 320 320 320 320 321 322 323 322 318 319 323 324 321 321 330 336 331 331 337 340 345 346 339 341 344 339 342 351 354 355 352 346 341 339 340 345 346 346 347 347 348 348 348 346 346 345 346 347 347 348 348 349 349 350 350 351 352 352 353
319 318 319 319 318 318 318 319 321 322 323 324 321 320 322 322 322 324 327 330 332 335 338 342 345 339 329 332 340 341 344 350 357 365 364 355 348 342 337 339 342 344 345 346 347 349 350 347 345 345 346 347 348 348 349 349 349 350 350 351 352 352 353
320 319 318 317 316 318 319 320 324 325 325 326 324 321 323 323 322 324 322 321 326 335 338 337 338 337 333 335 339 339 341 345 351 362 370 373 367 353 341 339 343 345 345 346 347 349 347 344 343 344 346 347 348 348 349 349 350 351 351 351 352 352 353
324 321 316 316 319 321 322 321 324 326 325 326 324 323 325 324 322 323 320 318 326 336 336 333 334 335 332 333 333 335 346 361 363 359 362 368 367 356 346 344 347 347 343 343 345 345 344 343 342 344 346 346 348 349 349 350 350 351 351 352 352 353 354
327 322 316 320 325 326 323 322 324 329 333 331 326 323 325 326 325 324 323 326 330 332 332 333 330 329 335 348 350 347 353 366 372 365 359 358 358 354 351 351 350 348 344 343 344 342 341 342 342 344 346 346 348 349 349 350 351 351 352 352 353 354 354
325 325 322 326 330 326 321 321 326 334 338 336 336 333 324 322 324 323 325 330 330 330 333 329 327 342 362 370 366 357 353 356 365 368 362 356 355 354 353 353 354 354 351 347 346 342 339 341 343 344 345 346 347 348 349 350 351 351 352 353 353 354 355
324 327 327 327 327 322 321 327 333 337 340 340 345 349 335 329 335 332 325 328 332 334 330 325 340 367 370 363 358 357 357 355 356 362 361 354 351 352 351 352 356 357 351 344 343 341 339 341 344 344 345 346 347 348 350 350 351 351 352 353 354 355 355
323 326 326 326 326 326 332 340 339 338 340 339 343 350 345 340 349 349 335 327 332 337 331 334 355 366 360 354 352 351 356 356 352 355 356 351 349 351 349 349 351 349 343 337 337 339 339 342 344 344 346 346 347 349 349 350 351 351 352 353 354 354 355
322 324 324 327 330 333 338 341 336 334 338 336 337 344 344 342 348 352 350 344 340 341 344 349 354 352 348 353 351 349 355 355 350 351 351 347 349 349 346 348 350 347 345 341 338 340 342 343 343 344 346 347 347 349 350 350 351 351 352 353 354 355 356
321 322 323 327 329 333 340 340 334 333 338 337 336 340 343 343 344 346 353 356 347 342 349 354 350 343 342 352 354 354 355 351 347 349 348 346 347 347 345 348 350 348 347 344 341 342 343 343 344 344 346 347 348 349 350 351 351 351 352 353 353 354 355
321 322 324 327 329 334 340 339 335 336 338 337 337 338 340 342 341 342 349 353 347 342 343 346 345 341 341 348 355 352 349 347 345 345 346 346 347 347 345 347 348 348 347 345 345 345 343 343 345 345 346 347 348 349 350 351 351 352 351 352 353 353 354
320 322 324 328 332 337 340 338 336 338 339 336 336 338 338 338 340 342 346 350 349 346 342 341 346 353 353 353 352 346 345 346 345 343 344 344 345 345 345 346 348 349 348 348 349 349 347 345 345 346 347 347 347 348 349 350 351 352 352 352 352 352 353
321 326 327 328 333 336 339 340 337 336 340 342 338 335 335 336 338 340 342 344 346 349 350 349 352 353 348 345 346 344 344 345 344 344 345 344 343 344 344 344 346 348 349 349 349 349 351 350 347 346 347 347 348 348 348 349 350 351 351 352 352 352 353
324 330 330 330 332 332 335 342 343 340 342 343 338 334 333 334 334 335 338 341 341 345 349 348 347 347 345 343 344 343 342 343 344 344 344 344 345 344 344 344 345 346 348 348 348 347 349 351 351 349 348 347 348 348 348 350 349 349 350 351 351 352 352
327 331 331 332 334 334 335 343 347 342 338 337 335 333 334 333 332 332 334 336 336 338 342 344 342 342 342 341 342 342 342 343 344 344 344 344 345 344 344 344 344 344 346 347 347 346 346 347 350 351 350 350 349 348 349 350 349 350 351 350 351 352 352
327 331 334 335 336 336 336 339 340 337 334 335 334 332 332 332 332 331 332 332 332 332 336 340 340 339 340 340 341 342 342 343 343 344 345 344 345 345 344 344 344 345 346 345 345 345 345 345 346 347 349 350 348 348 350 352 351 351 351 351 351 352 352
324 328 334 336 336 336 336 336 336 335 334 334 333 331 330 331 330 330 331 332 331 331 332 336 338 337 337 339 340 341 343 344 343 344 345 345 345 345 345 345 345 345 345 345 345 345 345 345 345 345 346 346 346 347 350 352 353 353 352 352 352 352 352
324 328 335 338 336 336 336 335 336 337 335 333 333 332 332 332 332 331 331 331 332 332 332 333 335 335 335 336 338 339 340 342 343 344 345 345 345 346 346 346 346 346 346 346 346 345 345 345 345 345 345 345 345 347 348 350 352 353 353 352 351 351 352
323 326 331 335 335 335 338 339 340 341 338 334 332 332 332 332 332 332 331 331 332 333 332 332 334 335 335 335 335 335 337 339 341 342 343 344 344 344 345 346 347 347 347 346 346 346 346 345 345 345 345 345 345 346 348 348 350 352 353 352 352 351 351
319 319 324 332 334 334 336 338 341 342 338 333 332 332 332 331 331 332 332 332 332 333 332 332 334 336 336 336 335 334 335 337 339 341 342 343 342 342 343 344 346 347 347 346 346 345 344 344 344 344 344 345 345 346 347 348 349 350 350 350 351 351 351
317 319 324 332 336 335 334 335 337 337 335 333 333 333 333 332 331 332 332 333 333 334 333 332 333 335 336 335 334 334 335 336 338 339 340 342 342 341 342 343 344 345 345 345 344 343 343 344 344 344 343 343 344 345 346 347 348 349 349 349 349 348 348
320 321 323 327 333 336 335 333 334 335 335 335 334 333 332 332 331 331 333 334 334 334 333 332 332 334 336 335 334 334 335 335 335 336 338 340 341 341 341 342 343 343 343 343 343 343 343 343 344 343 343 342 343 343 345 346 346 347 348 348 347 345 345
320 321 322 324 330 334 334 332 333 333 334 335 334 332 332 333 331 331 334 334 333 332 333 333 332 332 334 335 333 333 334 333 333 335 336 338 339 340 341 342 342 343 343 343 344 343 343 344 344 343 343 343 343 342 343 345 345 345 345 345 345 344 344
319 320 322 324 328 331 332 332 333 332 332 333 334 332 333 333 332 332 333 333 332 331 331 333 332 331 332 334 333 332 333 333 332 333 334 335 337 339 340 340 341 341 342 343 343 343 343 343 343 343 343 344 344 343 343 344 345 345 345 345 344 343 342
Wind_Speed
12 14 10 9 8 5 3 4 7 6 6 7 4 4 2 1 3 4 3 4 5 3 5 6 6 7 9 11 12 13 15 16 14 11 10 12 14 15 16 17 19 19 18 19 23 27 29 30 32 35 38 40 40 39 38 39 40 40 40 42 42 42 41
10 9 11 11 10 9 6 6 7 4 6 5 4 2 2 2 5 5 3 5 4 3 6 4 5 8 9 10 11 13 15 15 14 11 10 13 15 16 17 18 17 17 17 18 24 29 31 33 35 37 41 42 42 41 40 39 40 41 42 42 42 42 41
6 5 8 7 6 8 6 5 7 6 3 4 5 3 4 4 5 4 4 5 5 7 6 2 6 10 10 11 11 12 14 14 13 12 12 14 14 14 15 16 15 15 16 18 23 29 32 35 36 39 41 40 39 40 41 41 42 43 43 41 40 40 40
6 5 6 6 6 7 3 3 4 4 3 5 5 4 4 4 4 3 4 6 5 7 6 6 9 11 11 11 10 11 14 16 14 13 13 14 13 13 15 16 16 17 18 21 26 31 34 36 37 38 38 36 37 39 40 41 41 41 40 39 39 39 39
5 3 5 9 10 8 5 4 5 4 2 2 3 2 3 4 4 3 2 6 5 4 5 10 11 11 12 12 11 11 14 15 15 15 15 13 12 13 15 15 16 18 19 20 27 33 34 35 36 35 35 35 38 39 39 41 40 39 39 40 40 39 39
3 4 7 12 14 13 10 8 8 7 4 4 4 4 3 4 4 4 3 7 8 3 4 9 10 10 11 11 12 11 12 14 14 14 15 13 12 13 15 15 15 17 17 18 23 29 30 30 30 32 33 35 36 37 39 40 39 39 41 41 41 41 39
3 6 7 8 10 12 12 10 9 9 6 5 6 6 4 4 3 2 3 6 9 5 6 8 8 10 10 10 11 10 11 12 12 12 14 13 12 13 14 14 13 14 15 16 19 23 26 28 30 32 34 34 36 38 39 38 38 41 42 42 42 40 39
3 6 7 6 4 3 7 8 7 8 8 8 8 6 4 4 4 3 2 7 8 4 5 8 7 8 8 8 9 10 10 9 9 11 12 11 12 13 12 12 11 12 12 12 14 16 20 25 29 31 33 35 36 37 37 38 40 44 43 41 40 38 39
3 3 6 6 3 0 1 5 5 9 11 11 9 5 3 3 7 8 6 9 7 4 4 5 6 6 7 8 7 8 9 8 7 8 8 9 11 11 10 10 10 11 12 12 13 13 16 22 28 31 33 35 35 36 38 39 42 43 42 40 38 38 38
6 4 5 5 3 3 3 5 6 8 11 14 10 5 4 6 8 9 7 8 6 5 5 5 6 6 7 9 8 6 7 8 7 7 7 9 10 10 11 11 11 12 12 13 14 14 15 22 27 29 32 34 34 36 38 40 41 40 39 39 37 37 37
3 2 4 5 3 4 5 8 11 9 9 14 12 8 8 7 6 7 10 9 5 5 5 6 7 7 8 9 9 7 7 8 8 7 7 7 7 9 10 11 10 11 12 13 15 15 16 22 27 29 31 33 34 35 37 39 39 38 37 37 37 37 37
1 2 9 9 6 5 7 9 12 12 10 11 14 14 9 7 6 11 11 9 8 8 7 8 9 8 7 9 10 9 8 8 7 6 5 5 7 8 8 8 9 11 13 14 15 15 16 20 25 28 30 33 34 36 37 38 38 38 38 38 38 38 37
4 5 9 11 8 7 8 9 11 13 14 13 15 16 10 9 9 13 10 10 11 8 6 9 10 9 10 11 10 8 6 6 7 6 6 7 8 9 9 10 11 12 14 15 15 16 16 18 22 26 28 31 32 33 35 36 38 40 40 39 40 39 38
6 6 8 8 7 7 9 11 12 13 14 15 14 13 11 12 12 12 9 10 11 8 8 11 11 10 9 6 4 4 5 6 7 7 8 8 9 9 10 11 11 12 14 16 16 15 14 15 19 24 26 29 31 33 34 36 38 39 38 38 39 39 40
6 7 6 6 7 10 12 14 13 12 13 13 13 12 11 11 11 11 12 10 8 7 7 8 8 7 3 1 3 6 7 7 6 6 7 9 9 10 10 11 10 10 12 13 13 13 14 16 20 24 27 30 32 33 34 36 38 38 38 38 38 39 41
5 6 6 9 13 12 12 13 11 10 10 10 10 9 9 11 11 11 14 13 8 6 7 7 8 7 4 6 8 8 7 6 6 7 8 9 10 10 10 8 8 9 11 12 13 14 15 18 21 26 29 29 30 32 35 38 38 37 38 38 38 39 39
4 6 6 9 12 10 8 6 4 6 9 11 12 11 10 11 10 10 13 11 7 8 8 7 8 10 10 10 8 6 7 5 5 7 9 10 10 9 7 7 7 9 10 11 13 15 15 19 25 32 34 32 34 37 40 40 37 36 37 38 38 38 36
3 8 7 7 6 5 4 1 1 4 8 7 10 14 13 11 11 10 10 7 6 9 10 10 13 13 10 6 3 3 3 2 3 6 8 9 9 8 7 7 8 9 9 10 11 14 17 23 29 32 34 34 36 38 37 35 35 36 37 38 37 37 36
3 5 5 3 6 5 6 8 5 4 4 4 7 12 15 14 13 11 9 8 8 8 11 13 14 10 4 3 5 4 3 3 2 4 6 6 7 7 7 7 8 8 8 9 9 11 17 22 24 24 26 29 30 29 30 32 33 35 36 35 36 35 35
2 1 0 4 6 7 12 11 7 5 3 8 11 8 9 9 7 7 8 10 9 8 10 11 7 6 5 4 4 3 2 3 1 1 4 5 5 6 6 6 8 8 8 10 11 11 14 17 20 22 25 26 25 25 28 31 32 34 34 33 34 33 34
3 3 4 4 6 10 9 4 3 4 3 5 6 4 7 7 3 5 7 9 10 8 7 6 5 6 5 3 1 1 1 2 0 1 3 4 5 6 6 6 7 8 8 11 13 13 14 17 21 23 25 25 25 25 26 28 29 31 31 31 32 33 34
4 4 3 3 4 5 4 2 1 1 2 4 2 3 6 7 4 2 4 7 10 7 4 4 5 6 5 3 4 3 2 2 2 2 3 4 4 5 6 7 7 8 7 7 11 14 15 17 21 24 24 25 26 24 24 26 27 28 29 30 32 33 35
4 5 5 4 4 5 5 3 3 3 3 2 3 1 5 5 9 9 6 7 9 8 8 8 8 7 6 6 6 3 1 2 2 3 4 5 4 5 6 7 7 9 8 4 6 11 13 14 17 20 23 25 24 22 23 26 26 25 27 30 32 35 37
5 5 5 4 3 5 5 4 6 7 4 2 4 3 5 6 12 12 8 8 9 7 6 9 10 8 7 7 5 2 1 1 2 3 4 5 6 6 8 10 11 11 11 7 3 3 6 11 16 20 22 23 22 21 23 24 24 26 31 34 36 38 37
7 7 6 3 3 5 4 5 7 7 4 3 4 4 4 9 14 12 8 8 7 5 4 6 7 5 3 4 5 5 4 3 2 3 3 4 5 6 8 12 13 14 15 14 11 11 7 4 13 20 23 22 20 20 20 20 24 31 35 35 34 33 31
7 6 4 3 3 3 2 3 4 4 2 2 3 5 7 10 12 12 10 9 7 4 2 2 2 3 5 7 6 5 4 3 3 4 3 3 4 6 8 12 14 13 14 14 15 16 15 9 3 13 19 19 17 17 17 21 28 30 27 24 25 25 26
6 5 6 5 5 3 2 3 1 3 1 2 5 8 8 7 9 11 9 8 8 6 5 4 5 2 6 7 6 5 5 4 4 4 4 5 6 7 8 11 13 12 11 11 13 17 19 18 13 4 6 10 12 14 17 23 27 24 19 19 21 22 24
4 5 6 5 4 4 3 2 2 2 1 3 5 8 8 4 5 7 7 7 8 7 6 4 5 5 4 3 3 4 5 6 6 6 7 8 8 8 9 10 12 13 11 10 13 18 21 21 20 16 10 5 1 5 9 12 15 19 23 23 22 23 26
4 5 6 3 3 4 3 2 4 3 1 3 5 7 7 4 4 4 5 6 8 8 5 4 3 5 6 5 4 5 7 8 8 8 8 9 9 9 11 12 14 14 13 11 13 18 21 21 21 20 19 16 12 9 10 11 9 12 20 22 24 26 29
7 8 8 5 3 3 3 4 5 6 4 4 5 6 6 4 4 5 3 4 6 7 5 6 6 6 7 8 8 8 8 9 8 7 8 9 10 11 12 13 15 15 14 13 13 15 18 21 21 20 20 18 16 15 15 13 9 6 9 14 19 24 27
6 5 5 3 3 3 4 4 5 7 6 4 4 4 5 4 4 5 5 4 5 5 6 7 8 8 8 8 8 8 7 7 7 8 8 7 8 10 11 13 15 16 13 12 13 13 14 17 19 19 20 19 18 18 19 17 13 9 6 6 8 11 14
6 7 8 3 2 3 3 3 4 6 4 4 5 3 5 5 4 5 5 5 5 5 6 5 5 6 6 6 6 7 7 6 6 7 7 7 7 9 10 12 15 15 13 12 12 12 12 15 17 17 17 18 19 20 20 19 18 15 13 12 11 11 11
8 11 11 6 2 1 3 5 5 6 5 3 6 4 3 5 5 5 5 5 5 5 6 5 3 5 5 4 5 5 6 5 5 5 6 7 8 8 10 12 13 13 11 10 10 11 12 15 17 18 18 18 18 19 19 19 19 18 17 16 15 14 14
8 8 8 7 4 2 3 5 6 7 6 0 5 4 6 7 7 6 6 6 6 7 6 7 3 4 5 5 5 5 5 5 5 4 5 7 8 9 10 12 13 13 12 11 11 11 13 16 17 18 19 20 20 20 19 19 18 18 17 16 15 14 14
9 9 10 9 5 4 5 6 6 7 7 3 2 4 6 6 7 7 7 7 8 9 8 8 6 2 6 7 5 4 4 5 4 4 6 7 8 10 11 12 12 13 13 12 12 13 15 17 17 17 18 20 20 20 19 18 17 17 17 15 14 12 12
13 12 12 11 8 5 7 8 8 7 6 5 3 3 4 4 5 7 6 7 8 8 8 9 8 5 7 8 6 5 5 5 3 3 6 8 9 9 11 12 11 11 12 12 12 13 16 18 18 18 18 19 18 18 17 16 15 14 14 13 11 10 9
13 13 11 10 10 6 5 8 7 5 5 5 5 3 3 3 3 5 6 7 7 7 8 9 9 7 9 8 5 6 5 5 3 5 7 9 10 10 11 12 11 11 12 13 13 15 17 18 18 18 18 18 18 17 16 15 14 13 12 10 9 8 9
Wind_Direction
186 183 174 163 163 171 168 157 185 195 142 145 228 247 172 88 271 256 223 256 290 298 277 261 214 219 218 211 218 218 223 230 226 220 203 200 205 203 202 205 206 206 202 202 204 206 207 205 203 203 204 205 206 207 207 208 210 210 209 209 208 209 209
219 181 158 177 179 149 138 192 192 123 95 152 191 249 284 251 256 275 245 247 270 251 265 263 186 202 218 213 213 217 225 231 230 221 206 205 206 202 205 206 207 205 201 202 204 205 207 205 204 204 205 206 206 206 207 208 209 210 210 209 208 209 209
205 135 149 187 196 174 167 182 172 134 135 183 170 201 232 220 246 280 280 272 246 212 232 241 192 207 215 214 209 212 222 228 230 226 216 212 206 202 205 206 207 204 201 204 203 204 207 207 206 206 207 206 205 206 208 209 211 212 211 210 209 209 209
155 126 164 190 210 224 216 129 162 166 168 177 172 184 181 187 235 260 301 303 257 212 196 174 201 217 213 213 211 209 216 220 222 223 222 216 205 201 204 204 205 203 202 204 203 204 205 205 206 207 206 205 204 207 208 210 213 213 212 211 210 209 209
146 157 197 190 189 209 210 185 197 196 168 163 174 202 168 166 202 203 256 280 256 217 185 178 196 215 212 209 207 210 217 217 217 218 221 218 204 203 209 206 203 203 204 204 203 205 206 204 206 206 205 204 205 207 208 209 211 211 211 212 211 210 209
186 217 215 197 192 195 190 195 204 194 180 137 156 237 236 174 193 182 192 259 261 241 191 186 192 207 215 212 207 212 219 218 217 218 221 218 206 206 210 208 204 203 203 204 203 203 203 203 204 204 204 205 206 207 208 209 209 210 212 212 211 210 209
233 247 240 218 215 208 197 201 200 188 181 149 168 224 226 195 225 147 137 260 267 243 193 190 194 203 213 214 208 213 224 223 219 219 222 219 213 213 213 208 205 203 203 203 201 200 200 200 201 201 202 203 205 207 207 207 208 211 213 212 211 210 208
298 278 286 296 283 214 208 222 202 183 191 186 197 211 175 186 222 151 171 252 263 266 210 202 212 216 217 222 214 214 226 229 220 221 222 218 218 222 216 208 204 204 203 198 197 198 198 199 200 200 201 203 205 206 205 205 209 212 212 212 211 208 208
248 260 274 280 291 54 257 259 220 200 194 191 209 213 143 204 207 172 195 240 243 283 283 237 248 258 253 249 233 219 230 238 230 224 218 214 223 227 217 206 202 200 197 193 196 198 196 198 200 199 201 203 204 204 204 205 209 212 211 210 209 208 207
212 209 216 227 268 311 325 311 276 228 196 189 199 199 188 224 206 175 203 241 254 293 285 243 250 264 263 261 255 243 245 248 239 224 214 211 218 221 212 206 201 197 196 197 197 197 197 198 199 200 201 202 202 203 204 206 209 210 209 209 208 207 207
181 219 248 243 280 296 296 305 301 282 228 200 195 204 210 201 180 199 222 224 234 264 248 227 234 237 243 255 260 256 250 250 243 229 226 227 225 224 216 208 203 197 197 201 199 197 198 198 199 200 201 200 201 202 204 206 207 208 207 207 207 207 206
157 274 279 277 277 265 263 279 286 287 273 227 208 218 210 150 167 229 232 206 212 242 240 228 227 221 231 247 251 251 246 243 248 251 255 255 249 243 228 212 205 198 199 203 202 200 198 196 198 199 201 202 201 202 203 203 204 205 205 205 205 206 205
290 269 278 281 279 261 252 262 269 277 280 257 233 229 206 165 203 238 233 204 209 227 233 234 230 213 216 229 231 236 240 237 245 253 253 249 244 241 232 217 206 200 202 204 202 201 197 193 195 196 199 202 201 203 204 202 202 204 203 202 203 204 204
300 284 277 277 286 286 277 273 268 265 269 265 258 249 226 208 222 240 233 207 204 211 211 219 228 222 218 227 219 208 227 234 235 239 247 252 249 241 236 229 216 206 207 206 204 201 195 192 194 194 196 198 199 202 202 201 203 204 202 201 202 202 205
303 293 293 289 295 296 287 279 269 262 268 272 268 258 241 229 228 235 240 226 216 235 230 221 239 247 228 222 225 221 229 236 236 241 249 252 252 248 240 236 230 221 216 212 205 198 195 196 195 193 195 197 198 201 201 201 203 202 200 201 202 204 207
291 290 314 317 314 307 286 272 269 266 262 261 260 247 230 227 221 225 239 237 227 243 251 251 267 275 253 226 228 234 242 241 230 234 244 245 247 249 245 240 237 229 223 216 206 200 199 198 195 194 196 195 196 200 201 202 203 200 199 201 203 205 207
285 289 308 322 324 313 284 262 266 273 260 247 247 245 234 226 211 213 233 233 208 204 214 231 255 261 258 250 237 232 247 256 247 241 246 251 253 254 248 239 232 225 221 215 209 207 203 197 197 197 195 193 196 200 200 201 199 196 198 201 203 205 204
273 288 314 330 306 269 270 282 141 256 268 267 258 252 245 231 213 223 246 242 207 195 189 200 222 234 247 250 204 182 217 249 275 271 268 268 272 274 259 241 235 228 222 218 214 212 209 205 204 202 198 197 200 201 199 197 196 195 198 200 202 203 202
246 296 346 320 240 243 312 331 334 272 263 355 324 269 249 239 229 233 250 250 231 205 191 203 216 213 182 118 109 110 140 172 215 277 286 285 284 283 273 261 253 238 222 216 214 212 212 209 205 203 203 203 202 199 196 195 195 196 198 200 202 202 201
195 319 348 236 248 305 319 319 338 343 348 13 356 306 263 262 245 221 231 242 239 217 209 215 206 161 128 102 96 106 112 122 145 269 293 303 306 298 290 278 264 252 233 217 209 207 206 202 197 199 202 202 198 196 196 195 195 197 198 200 202 201 200
178 196 231 260 304 320 314 313 25 19 348 344 336 288 280 293 256 199 217 236 238 232 225 216 172 137 118 88 97 191 48 54 70 272 285 297 305 301 295 285 275 274 260 231 211 197 190 189 192 196 198 195 192 192 195 195 195 196 198 201 201 200 200
175 187 235 283 301 285 260 206 137 146 266 266 215 213 281 300 310 273 238 235 237 230 206 183 160 138 130 163 210 232 327 1 3 346 317 301 299 297 304 311 314 318 308 257 212 191 183 187 194 194 192 189 189 190 191 193 195 197 200 204 203 201 203
181 175 201 213 236 246 240 249 272 291 292 251 130 165 275 314 352 341 299 263 250 222 181 164 154 147 171 209 226 236 293 354 15 3 334 326 317 306 324 343 338 337 342 317 205 185 178 184 190 190 189 187 187 189 191 192 194 198 204 206 205 204 206
216 197 208 209 229 251 262 301 319 320 330 89 128 220 263 318 340 331 310 292 278 250 201 170 163 175 197 201 197 183 126 66 42 20 351 342 335 329 347 2 3 9 24 41 77 135 166 183 186 186 186 185 186 192 194 191 194 202 207 209 208 208 208
231 219 224 237 243 249 272 310 314 319 353 93 166 217 281 319 321 320 324 318 302 281 246 203 185 192 182 133 127 122 102 89 65 32 10 358 1 0 3 8 14 28 42 51 51 40 38 171 187 184 182 183 189 194 193 195 203 208 210 211 211 211 208
236 226 223 244 248 242 254 282 306 348 44 173 239 290 312 316 319 326 334 331 329 335 315 284 256 147 115 101 106 112 101 97 78 38 28 44 40 35 28 21 23 32 41 45 44 36 33 42 153 187 184 183 188 189 192 206 214 214 213 213 213 212 209
230 224 218 226 222 213 218 233 326 33 67 237 294 310 307 319 337 336 335 339 343 3 39 14 342 56 104 98 103 107 89 84 82 51 39 50 45 42 43 34 31 37 41 42 41 35 35 42 48 71 182 190 193 193 203 218 220 216 215 216 215 213 210
210 207 219 220 182 172 201 202 141 114 210 275 298 298 296 329 1 340 332 342 345 3 45 37 344 350 32 57 99 104 79 68 67 58 49 48 44 43 47 43 40 42 45 45 44 40 38 41 43 43 41 33 268 221 238 251 241 225 219 217 214 211 210
261 254 252 242 147 147 165 150 133 124 66 317 309 300 299 322 3 348 338 345 344 353 26 52 31 2 354 354 18 55 65 61 56 53 49 45 45 45 47 47 46 49 53 53 50 45 39 36 38 40 40 37 28 3 339 329 300 244 227 220 213 210 209
298 279 247 213 153 141 150 147 130 101 62 349 324 314 304 316 346 339 336 359 354 352 14 50 57 29 360 357 7 21 43 50 47 46 44 38 38 40 43 44 42 45 53 56 54 50 42 36 35 37 38 40 33 16 6 1 346 298 252 234 223 217 214
287 268 234 184 155 167 155 131 108 86 55 349 323 311 300 314 344 330 326 357 8 6 21 42 55 45 22 10 1 356 9 27 32 39 42 36 32 33 37 40 39 40 44 44 43 46 42 37 37 38 37 37 31 22 18 14 6 357 343 305 272 254 241
266 276 289 296 154 162 135 111 96 82 56 329 305 290 291 312 346 344 344 2 12 11 13 25 54 61 45 27 9 353 350 0 16 34 42 40 36 34 36 41 44 45 45 41 37 37 33 30 34 38 38 35 30 25 21 16 12 11 10 2 350 337 325
286 290 286 269 191 113 102 120 119 103 98 296 292 299 329 337 344 355 7 19 26 16 351 340 35 66 60 39 17 356 347 352 3 26 45 49 48 42 40 45 49 50 50 49 45 37 25 21 23 28 31 31 30 29 26 22 22 22 19 14 9 2 352
271 268 260 239 213 211 160 145 131 114 114 234 302 341 16 358 341 347 2 13 30 30 351 319 334 70 67 42 14 351 342 340 347 16 43 53 54 50 48 52 54 54 52 48 44 37 27 23 25 26 26 27 29 29 26 24 27 30 30 28 26 21 14
260 268 276 273 249 195 169 156 138 125 123 118 351 11 23 2 336 340 3 13 18 17 350 317 310 43 65 48 17 339 317 309 325 20 45 54 56 53 52 56 59 58 55 48 43 38 33 32 33 31 29 29 29 29 28 25 25 28 32 37 40 36 28
269 277 279 276 265 218 167 150 140 137 140 135 111 57 41 20 338 334 6 30 21 5 338 314 315 1 50 43 8 319 291 289 308 52 66 67 69 67 62 62 63 63 60 56 53 50 46 42 38 34 30 27 26 27 29 27 24 26 30 37 42 37 24
268 275 276 277 275 249 162 137 132 139 149 137 124 110 89 71 6 337 7 38 33 6 334 311 314 357 40 41 355 308 289 298 342 56 72 69 70 72 69 68 68 68 67 65 62 60 56 49 41 35 30 25 23 24 25 23 23 25 26 29 34 30 19